This demonstration page uses our WeatherBlox Daily Observations layout. Learn more.

41.86663, -103.66717

Hourly Observations for June 25, 2019

Temp ( °F °C ) Dew Point ( °F °C ) Humidity (%) Winds ( mph kmh ) Pressure ( in mb ) Visibility ( mi km ) Precip ( " mm )
12:53 am 00:53 Clear 55 12.8 51 10.6 87 87 ESE 5 7 29.8 1009 10 16.0934 0 0
1:53 am 01:53 Clear 53 11.7 53 11.7 100 100 NE 3 6 29.8 1009 10 16.0934 0 0
2:53 am 02:53 Clear 52 11.1 52 11.1 100 100 E 5 7 29.81 1010 10 16.0934 0 0
3:53 am 03:53 Clear 52 11 N/A N/A NE 8 13 29.83 1010 10 16.0934 0 0
4:53 am 04:53 Clear 52 11 N/A N/A NNE 6 9 29.85 1011 10 16.0934 0 0
5:53 am 05:53 Sunny 52 11 N/A N/A WSW 3 6 29.87 1012 10 16.0934 0 0
6:53 am 06:53 Sunny 55 12.8 54 12.2 96 96 N 6 9 29.88 1012 10 16.0934 0 0
7:53 am 07:53 Sunny 60 15.6 55 12.8 84 84 Calm 29.89 1012 10 16.0934 0 0
8:53 am 08:53 Sunny 63 17.2 56 13.3 78 78 S 6 9 29.91 1013 10 16.0934 0 0
9:53 am 09:53 Sunny 68 20 57 13.9 68 68 SSE 8 13 29.89 1012 10 16.0934 0 0
10:53 am 10:53 Sunny 71 21.7 60 15.6 68 68 SSE 9 15 29.89 1012 10 16.0934 0 0
11:53 am 11:53 Sunny 76 24.4 65 18.3 69 69 SE 8 13 29.87 1011 10 16.0934 0 0
12:53 pm 12:53 Sunny 79 26.1 68 20 69 69 SSE 7 11 29.86 1011 10 16.0934 0 0
1:53 pm 13:53 Sunny 81 27.2 71 21.7 72 72 VRB 5 7 29.84 1010 10 16.0934 0 0
2:53 pm 14:53 Sunny 84 28.9 74 23.3 72 72 VRB 7 11 29.81 1010 10 16.0934 0 0
3:53 pm 15:53 Sunny 83 28.3 72 22.2 70 70 ESE 16 26 29.79 1009 10 16.0934 0 0
4:53 pm 16:53 Mostly Cloudy with Light Rain 79 26.1 66 18.9 65 65 SSE 15 24 29.79 1009 10 16.0934 0 0.0254
5:53 pm 17:53 Sunny 80 26.7 67 19.4 64 64 SE 10 17 29.79 1009 10 16.0934 0 0.0254
6:53 pm 18:53 Partly Cloudy 78 25.6 67 19.4 69 69 SE 7 11 29.77 1008 10 16.0934 0 0
7:53 pm 19:53 Mostly Cloudy with Light Rain 77 25 63 17.2 62 62 WNW 20 31 29.85 1011 10 16.0934 0 0.0254
8:04 pm 20:04 Cloudy with Nearby Thunderstorms 76 24.4 62 16.7 62 62 WNW 9 15 29.72 1006 10 16.0934 0 0.0254
8:19 pm 20:19 Cloudy with Light Rain 73 23 61 16 65 65 SW 20 31 29.73 1007 10 16.0934 0 0
8:37 pm 20:37 Mostly Cloudy with Light Rain 73 22.8 61 16.1 66 66 S 12 19 29.71 1006 10 16.0934 0 0.0254
8:53 pm 20:53 Mostly Clear 72 22.2 59 15 64 64 WSW 3 6 29.84 1010 10 16.0934 0 0.0254
9:53 pm 21:53 Clear 66 18.9 56 13.3 70 70 Calm 29.84 1011 10 16.0934 0 0
10:53 pm 22:53 Clear 63 17.2 53 11.7 70 70 NNE 3 6 29.85 1011 10 16.0934 0 0
11:53 pm 23:53 Clear 61 16.1 54 12.2 78 78 SE 5 7 29.84 1011 10 16.0934 0 0

Powered by AerisWeather